Palestine, TX

2:53 AM CDT on June 29, 2017 (GMT -0500)
Palestine Municipal

Weather History for KPSN - January, 2014

Change the Weather History Date:

Tuesday, January 14, 2014

  Actual Average (KTYR) Record (KTYR)
Temperature  
Mean Temperature 52 °F -  
Max Temperature 70 °F 55 °F 79 °F (1928)
Min Temperature 33 °F 37 °F 1 °F (1982)
Degree Days  
Heating Degree Days 14    
Growing Degree Days 2 (Base 50)    
Moisture  
Dew Point 27 °F    
Average Humidity 47    
Maximum Humidity 85    
Minimum Humidity 13    
Precipitation  
Precipitation 0.00 in - - ()
Sea Level Pressure  
Sea Level Pressure 30.12 in    
Wind  
Wind Speed 4 mph (West)    
Max Wind Speed 20 mph    
Max Gust Speed 28 mph    
Visibility 10 miles    
Events      
Averages and records for this station are not official NWS values.
T = Trace of Precipitation, MM = Missing Value Source: NWS Daily Summary

Daily Weather History Graph

Daily Weather History Graph

Search for Another Location

Airport or City:

Trip Planner

Search our weather history database for the weather conditions in past years. The results will help you decide how hot, cold, wet, or windy it might be!

Date:

Astronomy

Jan. 14, 2014 Rise Set
Actual Time 7:23 AM CST 5:40 PM CST
Civil Twilight 6:56 AM CST 6:07 PM CST
Nautical Twilight 6:26 AM CST 6:37 PM CST
Astronomical Twilight 5:57 AM CST 7:06 PM CST
Moon 4:45 PM CST (1/14) 6:00 AM CST (1/14)
Length of Visible Light 11h 10m
Length of Day
10h 17m
Waxing Gibbous, 98% of the Moon is Illuminated
Jan 14
Waxing Gibbous
Jan 15
Full
Jan 23
Last Quarter
Jan 30
New
Feb 6
First Quarter

Hourly Weather History & Observations

Time (CST) Temp. Windchill Dew Point Humidity Pressure Visibility Wind Dir Wind Speed Gust Speed Precip Events Conditions
12:15 AM 36.5 °F - 31.6 °F 83% 30.11 in 10.0 mi Calm Calm - N/A   Clear
12:35 AM 37.4 °F - 30.9 °F 77% 30.11 in 10.0 mi Calm Calm - N/A   Clear
12:55 AM 36.5 °F - 31.1 °F 81% 30.10 in 10.0 mi Calm Calm - N/A   Clear
1:15 AM 35.2 °F - 31.1 °F 85% 30.10 in 10.0 mi Calm Calm - N/A   Clear
1:35 AM 35.2 °F - 30.9 °F 84% 30.10 in 10.0 mi Calm Calm - N/A   Clear
1:55 AM 35.6 °F - 31.1 °F 84% 30.09 in 10.0 mi Calm Calm - N/A   Clear
2:15 AM 37.0 °F - 30.7 °F 78% 30.10 in 10.0 mi Calm Calm - N/A   Clear
2:35 AM 34.7 °F - 30.6 °F 85% 30.10 in 10.0 mi Calm Calm - N/A   Clear
2:55 AM 34.7 °F - 30.2 °F 84% 30.09 in 10.0 mi Calm Calm - N/A   Clear
3:15 AM 35.2 °F 32.4 °F 30.7 °F 84% 30.09 in 10.0 mi ESE 3.5 mph - N/A   Clear
3:35 AM 38.7 °F - 28.9 °F 68% 30.08 in 10.0 mi Calm Calm - N/A   Clear
3:55 AM 40.1 °F - 27.0 °F 59% 30.08 in 10.0 mi Calm Calm - N/A   Clear
4:15 AM 34.7 °F 31.8 °F 29.8 °F 82% 30.08 in 10.0 mi South 3.5 mph - N/A   Clear
4:35 AM 33.8 °F - 29.5 °F 84% 30.09 in 10.0 mi Calm Calm - N/A   Clear
4:55 AM 36.9 °F - 29.8 °F 76% 30.08 in 10.0 mi Calm Calm - N/A   Clear
5:15 AM 36.3 °F - 28.4 °F 73% 30.08 in 10.0 mi Calm Calm - N/A   Clear
5:35 AM 34.3 °F - 30.0 °F 84% 30.08 in 10.0 mi Calm Calm - N/A   Clear
5:55 AM 34.3 °F - 29.3 °F 82% 30.09 in 10.0 mi Calm Calm - N/A   Clear
6:15 AM 33.1 °F 30.0 °F 29.1 °F 85% 30.10 in 10.0 mi SE 3.5 mph - N/A   Clear
6:35 AM 34.3 °F - 30.4 °F 85% 30.10 in 10.0 mi Calm Calm - N/A   Clear
6:55 AM 35.4 °F - 28.4 °F 76% 30.10 in 10.0 mi Calm Calm - N/A   Clear
7:15 AM 33.3 °F - 28.4 °F 82% 30.10 in 10.0 mi Calm Calm - N/A   Clear
7:35 AM 35.8 °F 33.0 °F 27.9 °F 73% 30.10 in 10.0 mi SE 3.5 mph - N/A   Clear
7:55 AM 36.1 °F 32.3 °F 27.9 °F 72% 30.10 in 10.0 mi SE 4.6 mph - N/A   Clear
8:15 AM 39.6 °F - 27.7 °F 62% 30.11 in 10.0 mi Calm Calm - N/A   Clear
8:35 AM 42.6 °F 39.9 °F 28.8 °F 58% 30.11 in 10.0 mi SSE 4.6 mph - N/A   Clear
8:55 AM 45.1 °F 43.7 °F 27.5 °F 50% 30.11 in 10.0 mi SSE 3.5 mph - N/A   Clear
9:15 AM 47.3 °F - 27.5 °F 46% 30.12 in 10.0 mi Calm Calm - N/A   Clear
9:35 AM 49.8 °F - 27.0 °F 41% 30.14 in 10.0 mi Calm Calm - N/A   Clear
9:55 AM 53.1 °F - 25.7 °F 35% 30.14 in 10.0 mi South 6.9 mph - N/A   Clear
10:15 AM 55.2 °F - 24.8 °F 31% 30.14 in 10.0 mi South 6.9 mph - N/A   Clear
10:35 AM 58.1 °F - 24.1 °F 27% 30.14 in 10.0 mi South 6.9 mph - N/A   Clear
10:55 AM 58.8 °F - 25.2 °F 28% 30.13 in 10.0 mi SSW 9.2 mph - N/A   Clear
11:15 AM 60.6 °F - 26.4 °F 27% 30.12 in 10.0 mi South 9.2 mph - N/A   Clear
11:35 AM 62.4 °F - 26.6 °F 26% 30.11 in 10.0 mi SSW 8.1 mph - N/A   Clear
11:55 AM 65.3 °F - 25.0 °F 22% 30.10 in 10.0 mi SW 11.5 mph 17.3 mph N/A   Clear
12:15 PM 66.7 °F - 21.7 °F 18% 30.09 in 10.0 mi SW 10.4 mph 17.3 mph N/A   Clear
12:35 PM 67.5 °F - 19.9 °F 16% 30.07 in 10.0 mi SSW 12.7 mph - N/A   Clear
12:55 PM 68.5 °F - 19.4 °F 15% 30.06 in 10.0 mi WSW 11.5 mph 17.3 mph N/A   Clear
1:15 PM 69.1 °F - 21.0 °F 16% 30.05 in 10.0 mi SSW 9.2 mph - N/A   Clear
1:35 PM 69.3 °F - 19.6 °F 15% 30.04 in 10.0 mi SSW 12.7 mph - N/A   Clear
1:55 PM 69.8 °F - 18.3 °F 14% 30.03 in 10.0 mi WSW 10.4 mph 16.1 mph N/A   Clear
2:15 PM 70.0 °F - 18.9 °F 14% 30.04 in 10.0 mi WSW 9.2 mph - N/A   Clear
2:35 PM 70.5 °F - 18.3 °F 14% 30.03 in 10.0 mi SW 10.4 mph - N/A   Clear
2:55 PM 70.7 °F - 19.6 °F 14% 30.03 in 10.0 mi SW 6.9 mph - N/A   Clear
3:15 PM 70.7 °F - 19.2 °F 14% 30.03 in 10.0 mi West 8.1 mph - N/A   Clear
3:35 PM 70.5 °F - 17.4 °F 13% 30.04 in 10.0 mi WSW 8.1 mph - N/A   Clear
3:55 PM 70.3 °F - 19.0 °F 14% 30.04 in 10.0 mi WSW 6.9 mph - N/A   Clear
4:15 PM 70.0 °F - 18.7 °F 14% 30.05 in 10.0 mi SW 9.2 mph - N/A   Clear
4:35 PM 69.6 °F - 20.8 °F 16% 30.06 in 10.0 mi WSW 6.9 mph - N/A   Clear
4:55 PM 68.9 °F - 23.5 °F 18% 30.07 in 10.0 mi SW 6.9 mph - N/A   Clear
5:15 PM 67.5 °F - 24.1 °F 19% 30.08 in 10.0 mi WNW 5.8 mph - N/A   Clear
5:35 PM 65.5 °F - 25.3 °F 22% 30.09 in 10.0 mi WNW 6.9 mph - N/A   Clear
5:55 PM 64.2 °F - 26.1 °F 24% 30.11 in 10.0 mi NNW 10.4 mph 16.1 mph N/A   Clear
6:15 PM 60.1 °F - 28.0 °F 30% 30.13 in 10.0 mi NNW 11.5 mph 16.1 mph N/A   Clear
6:35 PM 60.3 °F - 28.6 °F 30% 30.15 in 10.0 mi North 11.5 mph 19.6 mph N/A   Clear
6:55 PM 59.0 °F - 31.1 °F 35% 30.16 in 10.0 mi North 11.5 mph - N/A   Clear
7:15 PM 57.7 °F - 32.4 °F 38% 30.18 in 10.0 mi North 8.1 mph - N/A   Clear
7:35 PM 57.0 °F - 32.9 °F 40% 30.19 in 10.0 mi North 11.5 mph - N/A   Clear
7:55 PM 58.1 °F - 32.5 °F 38% 30.20 in 10.0 mi NNW 10.4 mph - N/A   Scattered Clouds
8:15 PM 57.7 °F - 33.1 °F 39% 30.21 in 10.0 mi NNW 10.4 mph - N/A   Scattered Clouds
8:55 PM 57.2 °F - 34.9 °F 43% 30.24 in 10.0 mi North 19.6 mph 27.6 mph N/A   Scattered Clouds
9:15 PM 55.6 °F - 32.2 °F 41% 30.26 in 10.0 mi North 19.6 mph 26.5 mph N/A   Scattered Clouds
9:35 PM 54.5 °F - 32.0 °F 42% 30.28 in 10.0 mi NNW 12.7 mph 19.6 mph N/A   Scattered Clouds
9:55 PM 53.6 °F - 32.0 °F 44% 30.28 in 10.0 mi North 11.5 mph - N/A   Scattered Clouds
10:15 PM 52.7 °F - 32.0 °F 45% 30.28 in 10.0 mi NNW 10.4 mph 17.3 mph N/A   Scattered Clouds
10:35 PM 52.3 °F - 31.8 °F 46% 30.29 in 10.0 mi NW 11.5 mph - N/A   Clear
10:55 PM 52.7 °F - 29.1 °F 40% 30.30 in 10.0 mi NNW 13.8 mph 18.4 mph N/A   Clear
11:15 PM 52.2 °F - 28.0 °F 39% 30.31 in 10.0 mi NNW 12.7 mph 19.6 mph N/A   Clear
11:35 PM 51.1 °F - 28.6 °F 42% 30.31 in 10.0 mi NW 15.0 mph - N/A   Clear
11:55 PM 50.2 °F - 27.3 °F 41% 30.31 in 10.0 mi NNW 13.8 mph 18.4 mph N/A   Clear